When you browse on this site, cookies collect data to enhance your experience and personalize the content and advertising you see.
Visit our Privacy Policy to learn more. By continuing to use the site, you agree to this use of cookies and data.
  • In Portugal
  • List of Countries
  • For 7 days
  • Water Temperature
  • Satellite Maps
  • Weather Map
  • Weather Widgets
  • user-avatar
    Login

    Hourly Weather Ruse

    Today, 22 April, Monday

    Time Temperature Precipitation Wind Pressure Humidity
    00:00 +9°C° 0.1 mm 2 mps 760 mmHg 77%
    01:00 +9°C° 0.1 mm 2 mps 760 mmHg 77%
    02:00 +9°C° 0 mm 2 mps 759 mmHg 71%
    03:00 +9°C° 0 mm 2 mps 759 mmHg 72%
    04:00 +8°C° 0 mm 2 mps 759 mmHg 73%
    05:00 +9°C° 0 mm 1 mps 759 mmHg 74%
    06:00 +9°C° 0 mm 2 mps 759 mmHg 72%
    07:00 +12°C° 0 mm 2 mps 759 mmHg 70%
    08:00 +13°C° 0 mm 2 mps 759 mmHg 68%
    09:00 +14°C° 0.1 mm 3 mps 759 mmHg 62%
    10:00 +17°C° 0.1 mm 3 mps 759 mmHg 56%
    11:00 +18°C° 0.1 mm 3 mps 759 mmHg 51%
    12:00 +19°C° 0 mm 3 mps 759 mmHg 50%
    13:00 +19°C° 0 mm 3 mps 759 mmHg 49%
    14:00 +20°C° 0 mm 3 mps 759 mmHg 48%
    15:00 +19°C° 0 mm 4 mps 759 mmHg 53%
    16:00 +18°C° 0 mm 4 mps 759 mmHg 57%
    17:00 +17°C° 0 mm 5 mps 759 mmHg 61%
    18:00 +15°C° 0 mm 6 mps 759 mmHg 64%
    19:00 +13°C° 0 mm 6 mps 759 mmHg 67%
    20:00 +11°C° 0 mm 6 mps 760 mmHg 70%
    21:00 +10°C° 0 mm 6 mps 760 mmHg 67%
    22:00 +9°C° 0 mm 6 mps 760 mmHg 64%
    23:00 +9°C° 0 mm 6 mps 761 mmHg 60%

    Tomorrow, 23 April, Tuesday

    Time Temperature Precipitation Wind Pressure Humidity
    00:00 +8°C° 0 mm 6 mps 761 mmHg 61%
    01:00 +8°C° 0 mm 6 mps 761 mmHg 62%
    02:00 +8°C° 0 mm 5 mps 761 mmHg 63%
    03:00 +7°C° 0 mm 5 mps 761 mmHg 62%
    04:00 +7°C° 0 mm 5 mps 761 mmHg 60%
    05:00 +7°C° 0 mm 5 mps 761 mmHg 59%
    06:00 +8°C° 0 mm 5 mps 762 mmHg 59%
    07:00 +9°C° 0 mm 5 mps 762 mmHg 59%
    08:00 +9°C° 0 mm 6 mps 762 mmHg 59%
    09:00 +10°C° 0 mm 6 mps 762 mmHg 58%
    10:00 +11°C° 0 mm 6 mps 763 mmHg 56%
    11:00 +13°C° 0 mm 6 mps 763 mmHg 54%
    12:00 +14°C° 0 mm 6 mps 762 mmHg 55%
    13:00 +14°C° 0 mm 6 mps 762 mmHg 55%
    14:00 +15°C° 0 mm 6 mps 762 mmHg 55%
    15:00 +14°C° 0.1 mm 6 mps 761 mmHg 60%
    16:00 +14°C° 0.1 mm 6 mps 761 mmHg 65%
    17:00 +13°C° 0.1 mm 5 mps 761 mmHg 70%
    18:00 +13°C° 0 mm 6 mps 761 mmHg 71%
    19:00 +11°C° 0 mm 6 mps 761 mmHg 72%
    20:00 +10°C° 0 mm 6 mps 761 mmHg 73%
    21:00 +10°C° 0 mm 6 mps 761 mmHg 71%
    22:00 +10°C° 0 mm 6 mps 762 mmHg 68%
    23:00 +10°C° 0 mm 5 mps 762 mmHg 66%

    Day after tomorrow, 24 April, Wednesday

    Time Temperature Precipitation Wind Pressure Humidity
    00:00 +9°C° 0 mm 5 mps 762 mmHg 67%
    01:00 +10°C° 0 mm 4 mps 762 mmHg 68%
    02:00 +10°C° 0 mm 4 mps 762 mmHg 70%
    03:00 +9°C° 0 mm 3 mps 762 mmHg 73%
    04:00 +9°C° 0 mm 3 mps 762 mmHg 75%
    05:00 +9°C° 0 mm 2 mps 762 mmHg 78%
    06:00 +10°C° 0 mm 2 mps 762 mmHg 77%
    07:00 +10°C° 0 mm 2 mps 762 mmHg 75%
    08:00 +12°C° 0 mm 2 mps 763 mmHg 74%
    09:00 +14°C° 0 mm 2 mps 763 mmHg 69%
    10:00 +16°C° 0 mm 2 mps 763 mmHg 64%
    11:00 +18°C° 0 mm 2 mps 763 mmHg 59%
    12:00 +19°C° 0 mm 2 mps 763 mmHg 57%
    13:00 +20°C° 0 mm 2 mps 763 mmHg 55%
    14:00 +21°C° 0 mm 2 mps 762 mmHg 52%
    15:00 +21°C° 0 mm 3 mps 762 mmHg 56%
    16:00 +21°C° 0 mm 4 mps 762 mmHg 59%
    17:00 +21°C° 0 mm 4 mps 762 mmHg 63%
    18:00 +19°C° 0 mm 4 mps 762 mmHg 70%
    19:00 +16°C° 0 mm 5 mps 762 mmHg 77%
    20:00 +14°C° 0 mm 5 mps 762 mmHg 85%
    21:00 +13°C° 0 mm 4 mps 763 mmHg 87%
    22:00 +12°C° 0 mm 3 mps 763 mmHg 89%
    23:00 +11°C° 0 mm 3 mps 763 mmHg 91%

    25 April, Thursday

    Time Temperature Precipitation Wind Pressure Humidity
    00:00 +11°C° 0 mm 3 mps 763 mmHg 91%
    01:00 +10°C° 0 mm 2 mps 763 mmHg 91%
    02:00 +10°C° 0 mm 2 mps 763 mmHg 90%
    03:00 +9°C° 0 mm 2 mps 763 mmHg 90%
    04:00 +9°C° 0 mm 2 mps 763 mmHg 90%
    05:00 +9°C° 0 mm 2 mps 763 mmHg 90%
    06:00 +10°C° 0 mm 2 mps 763 mmHg 86%
    07:00 +13°C° 0 mm 2 mps 764 mmHg 81%
    08:00 +14°C° 0 mm 2 mps 764 mmHg 76%
    09:00 +16°C° 0 mm 2 mps 764 mmHg 72%
    10:00 +18°C° 0 mm 2 mps 763 mmHg 67%
    11:00 +20°C° 0 mm 2 mps 763 mmHg 63%
    12:00 +21°C° 0 mm 2 mps 763 mmHg 60%
    13:00 +23°C° 0 mm 2 mps 762 mmHg 57%
    14:00 +24°C° 0 mm 3 mps 762 mmHg 54%
    15:00 +24°C° 0 mm 3 mps 762 mmHg 55%
    16:00 +24°C° 0 mm 3 mps 761 mmHg 57%
    17:00 +23°C° 0 mm 4 mps 761 mmHg 59%
    18:00 +21°C° 0 mm 4 mps 761 mmHg 65%
    19:00 +19°C° 0 mm 4 mps 761 mmHg 71%
    20:00 +17°C° 0 mm 4 mps 762 mmHg 78%
    21:00 +15°C° 0 mm 4 mps 762 mmHg 79%
    22:00 +14°C° 0 mm 4 mps 762 mmHg 80%
    23:00 +13°C° 0 mm 3 mps 762 mmHg 82%

    26 April, Friday

    Time Temperature Precipitation Wind Pressure Humidity
    00:00 +12°C° 0 mm 3 mps 762 mmHg 81%
    01:00 +13°C° 0 mm 2 mps 762 mmHg 80%
    02:00 +12°C° 0 mm 2 mps 761 mmHg 79%
    03:00 +12°C° 0 mm 2 mps 761 mmHg 79%
    04:00 +12°C° 0 mm 2 mps 761 mmHg 79%
    05:00 +10°C° 0 mm 2 mps 761 mmHg 78%
    06:00 +13°C° 0 mm 2 mps 761 mmHg 75%
    07:00 +14°C° 0 mm 2 mps 761 mmHg 72%
    08:00 +16°C° 0 mm 2 mps 761 mmHg 68%
    09:00 +18°C° 0 mm 2 mps 761 mmHg 64%
    10:00 +19°C° 0 mm 2 mps 761 mmHg 61%
    11:00 +21°C° 0 mm 2 mps 761 mmHg 57%
    12:00 +23°C° 0 mm 2 mps 760 mmHg 54%
    13:00 +24°C° 0 mm 2 mps 760 mmHg 51%
    14:00 +25°C° 0 mm 2 mps 759 mmHg 48%
    15:00 +25°C° 0 mm 3 mps 759 mmHg 51%
    16:00 +25°C° 0 mm 3 mps 759 mmHg 53%
    17:00 +23°C° 0 mm 4 mps 759 mmHg 55%
    18:00 +21°C° 0 mm 4 mps 759 mmHg 60%
    19:00 +19°C° 0 mm 4 mps 759 mmHg 65%
    20:00 +17°C° 0 mm 4 mps 759 mmHg 69%
    21:00 +15°C° 0 mm 4 mps 759 mmHg 69%
    22:00 +14°C° 0 mm 4 mps 759 mmHg 70%
    23:00 +13°C° 0 mm 3 mps 759 mmHg 70%

    27 April, Saturday

    Time Temperature Precipitation Wind Pressure Humidity
    00:00 +12°C° 0 mm 3 mps 759 mmHg 68%
    01:00 +12°C° 0 mm 3 mps 758 mmHg 67%
    02:00 +11°C° 0 mm 3 mps 758 mmHg 65%
    03:00 +12°C° 0 mm 2 mps 758 mmHg 66%
    04:00 +12°C° 0 mm 2 mps 758 mmHg 66%
    05:00 +10°C° 0 mm 2 mps 758 mmHg 67%
    06:00 +13°C° 0 mm 2 mps 758 mmHg 66%
    07:00 +14°C° 0 mm 2 mps 758 mmHg 64%
    08:00 +16°C° 0 mm 2 mps 757 mmHg 63%
    09:00 +18°C° 0 mm 2 mps 757 mmHg 59%
    10:00 +20°C° 0 mm 2 mps 757 mmHg 56%
    11:00 +23°C° 0 mm 2 mps 757 mmHg 52%
    12:00 +24°C° 0 mm 3 mps 756 mmHg 50%
    13:00 +25°C° 0 mm 3 mps 756 mmHg 48%
    14:00 +26°C° 0 mm 3 mps 755 mmHg 46%
    15:00 +26°C° 0 mm 3 mps 755 mmHg 49%
    16:00 +25°C° 0 mm 4 mps 755 mmHg 52%
    17:00 +25°C° 0 mm 4 mps 755 mmHg 56%
    18:00 +22°C° 0 mm 4 mps 755 mmHg 61%
    19:00 +20°C° 0 mm 4 mps 755 mmHg 66%
    20:00 +18°C° 0 mm 4 mps 755 mmHg 72%
    21:00 +15°C° 0 mm 4 mps 755 mmHg 71%
    22:00 +14°C° 0 mm 4 mps 755 mmHg 71%
    23:00 +13°C° 0 mm 3 mps 755 mmHg 71%
    Show more